Location: C.E.K. Mees Observatory
(42.7003°N, 77.4088°W)
Time: 08:16:00
(UTC-05:00)

Tiangong 2 - Pass Details

Date: 09 October 2017
Orbit: 386 x 390 km, 42.8° (Epoch: 13 December)

Event Time Altitude Azimuth Distance (km) Brightness Sun altitude
Exits shadow 06:31:44 - 238° (WSW) 1,489 3.5 -9.0°
Reaches altitude 10° 06:31:55 10° 237° (WSW) 1,417 3.4 -8.9°
Maximum altitude 06:35:01 49° 162° (SSE) 510 1.8 -8.4°
Drops below altitude 10° 06:38:09 10° 85° (E) 1,424 5.7 -7.8°
Sets 06:40:16 0° 80° (E) 2,283 7.0 -7.4°
